Location: Newark
(0.5300°S, 127.4800°E)
Time: 10:57:51
(UTC+00:00)

Vanguard 3 - Pass Details

Date: 21 September 2019
Orbit: 508 x 3262 km, 33.3° (Epoch: 21 October)

Event Time Altitude Azimuth Distance (km) Brightness Sun altitude
Rises 03:55:51 0° 318° (NW) 7,198 12.1 81.8°
Reaches altitude 10° 04:02:34 10° 330° (NNW) 6,178 11.9 80.1°
Maximum altitude 04:16:46 24° 18° (NNE) 4,578 11.3 76.6°
Drops below altitude 10° 04:27:56 10° 66° (ENE) 4,857 11.1 73.8°
Sets 04:32:14 0° 80° (E) 5,439 11.2 72.7°
